sat.trackr.live / text

‹ back to catalog

STARLINK-31782

NORAD 59606 · 2024-080F

PAYLOAD ACTIVE UNKNOWN

§ Identity

Operator
Country
US
Launch date
2024-04-28
Launch site
AFETR
Launch vehicle
Mass (kg)
RCS (m²)

Purposes: comms

External: N2YO · Heavens-Above · Gunter

§ Orbital elements

Epoch: 2026-05-24T21:38:03.183072Z

Period
94.27 min
Inclination
43.0036°
Eccentricity
0.0001543
Mean motion
15.27580417 rev/d
Perigee alt
482.0 km
Apogee alt
484.1 km
Semi-major
6,861.2 km
B*
5.5187e-5
RAAN
331.3603°
Arg perigee
283.5290°
Mean anomaly
76.5390°
Rev number
11,614

§ Raw data

STARLINK-317821 59606U 24080F   26144.90142573  .00001257  00000+0  55187-4 0  99922 59606  43.0036 331.3603 0001543 283.5290  76.5390 15.27580417116148

JSON: /api/v1/satellites/59606 · /tle

For live sub-satellite position, see the globe view (requires WebGL).

§ Visibility from observer

Set your observer location to see the next 7 days of passes ≥ 10°. The values pass through the URL so the page stays shareable.

No JS? Fill the form by hand. The geolocation button needs JavaScript.